カタログに戻る

SHIYAN 20B

SY-20B

運用中科学LEO
NORAD 54700·PAYLOAD·🇨🇳 China

打ち上げ Dec 12, 2022 から Jiuquan Satellite Launch Center

Loading…

次のパス (今後24時間)

TLE

最新Source: Space-Track

元期: Sep 14, 2026, 14:55 UTC

1 54700U 22169B   26257.62203469 -.00000012  00000-0  48623-4 0  9991
2 54700  59.9968 304.9362 0011136 339.0978  20.9601 14.29564369196140

AllMySatでSHIYAN 20Bをリアルタイム追跡

Download on the App Store